Flag for Colombia Weather past 2 weeks in San Juan de Pasto, Colombia

Now
59 °F

Scattered clouds.


Feels Like: 56 °F
Forecast: 47 / 65 °F
Wind: 14 mph from South

Location: Latacunga Airport

Current Time: Aug 28, 2014 at 7:17:28 PM

Latest Report: Aug 28, 2014 at 6:00 PM


Visibility: N/A

Pressure: 30.36 "Hg

Humidity: 72%

Dew point: 50 °F

Location of San Juan de PastoLocation

Historic Weather in San Juan de Pasto — Graph

°F

San Juan de Pasto temperature yesterday

Maximum temperature yesterday: 61 °F (at 1:00 PM)
Minimum temperature yesterday: 46 °F (at 12:00 AM)
Average temperature yesterday: 53 °F

Past Weeks' High & Low Weather Summary

 TemperatureHumidityPressure
High68 °F (Aug 21, 2:00 PM)100% (Aug 14, 1:00 AM)30.51 "Hg (Aug 14, 1:00 AM)
Low41 °F (Aug 20, 4:00 AM)42% (Aug 17, 12:00 PM)29.89 "Hg (Aug 27, 10:00 AM)
Average53 °F79%30.42 "Hg
* Reported Aug 13 6:00 PM — Aug 28 6:00 PM, San Juan de Pasto, Weather by CustomWeather, © 2014

Note: Actual official high and low records may vary slightly from our data, if they occured in-between our weather recording intervals... More about our weather records

Advertising

San Juan de Pasto weather history for previous 24 hours

 ConditionsComfort  
Time TempWeatherWind HumidityBarometerVisibility
6:00 PM
Aug 28
59 °FScattered clouds.14 mph72%30.36 "HgN/A
5:00 PM61 °FScattered clouds.12 mph68%30.33 "HgN/A
4:00 PM59 °FBroken clouds.13 mph77%30.33 "HgN/A
3:00 PM59 °FScattered showers. Broken clouds.20 mph72%30.33 "HgN/A
2:00 PM61 °FScattered showers. Partly sunny.17 mph68%30.36 "HgN/A
1:00 PM63 °FPartly sunny.17 mph59%30.36 "HgN/A
12:00 PM61 °FPartly sunny.17 mph63%30.39 "HgN/A
11:00 AM61 °FBroken clouds.13 mph68%30.42 "HgN/A
10:00 AM59 °FScattered clouds.7 mph63%30.42 "HgN/A
9:00 AM57 °FPassing clouds.5 mph72%30.45 "HgN/A
8:00 AM54 °FScattered clouds.2 mph82%30.45 "HgN/A
7:00 AM48 °FBroken clouds.3 mph100%30.42 "HgN/A
6:00 AM48 °FThunderstorms. Overcast.3 mph100%30.42 "HgN/A
5:00 AM48 °FThunderstorms. Overcast.No wind100%30.42 "HgN/A
4:00 AM48 °FPartly cloudy.2 mph100%30.42 "HgN/A
3:00 AM48 °FPassing clouds.1 mph100%30.39 "HgN/A
2:00 AM48 °FPassing clouds.2 mph100%30.42 "HgN/A
1:00 AM48 °FPassing clouds.3 mph100%30.42 "HgN/A
12:00 AM48 °FPassing clouds.3 mph100%30.45 "HgN/A
11:00 PM
Aug 27
50 °FPassing clouds.7 mph94%30.45 "HgN/A
10:00 PM52 °FPassing clouds.7 mph94%30.42 "HgN/A
9:00 PM52 °FPartly cloudy.10 mph94%30.42 "HgN/A
8:00 PM54 °FPassing clouds.13 mph88%30.39 "HgN/A
7:00 PM55 °FPartly cloudy.16 mph82%30.36 "HgN/A
Weather by CustomWeather, © 2014

See weather overviewHow to use our weather pages